SWA757 KCMH-KATL

Flight info

Callsign SWA757
Flight time 1h 12m
Altitude 36000
Route POBSE OHIOS KTRYN ONDRE1
Aircraft B738/M-SDE2E3FGHIRWXY/LB1

Departure

Time 2026-05-08 10:20
Airport John Glenn Columbus International Airport (KCMH)

Arrival

Time 2026-05-08 11:32
Airport Hartsfield Jackson Atlanta International Airport (KATL)
Time Latitude Longitude Altitude Speed Heading
2026-05-08 10:17 39.99368 -82.87851 824 ft 11 kts 94°
2026-05-08 10:17 39.99362 -82.87751 824 ft 11 kts 94°
2026-05-08 10:17 39.99357 -82.87654 824 ft 11 kts 93°
2026-05-08 10:17 39.99353 -82.87561 820 ft 10 kts 94°
2026-05-08 10:18 39.99348 -82.87470 824 ft 10 kts 95°
2026-05-08 10:18 39.99342 -82.87381 824 ft 10 kts 95°
2026-05-08 10:18 39.99304 -82.87321 821 ft 9 kts 171°
2026-05-08 10:18 39.99268 -82.87322 824 ft 0 kts 184°
2026-05-08 10:19 39.99253 -82.87323 824 ft 9 kts 184°
2026-05-08 10:20 39.99172 -82.87494 823 ft 22 kts 274°
2026-05-08 10:20 39.99203 -82.88035 824 ft 100 kts 274°
2026-05-08 10:20 39.99270 -82.89262 835 ft 168 kts 275°
2026-05-08 10:20 39.99380 -82.90900 1417 ft 192 kts 274°
2026-05-08 10:21 39.99478 -82.92694 2198 ft 202 kts 274°
2026-05-08 10:21 39.99567 -82.94564 2951 ft 210 kts 274°
2026-05-08 10:21 39.99666 -82.96458 3688 ft 208 kts 274°
2026-05-08 10:21 39.99770 -82.98309 4518 ft 200 kts 274°
2026-05-08 10:22 39.99883 -83.00072 5388 ft 189 kts 279°
2026-05-08 10:22 40.00029 -83.01775 5964 ft 197 kts 266°
2026-05-08 10:22 39.99376 -83.03442 6132 ft 226 kts 226°
2026-05-08 10:22 39.97923 -83.04434 6524 ft 249 kts 199°
2026-05-08 10:23 39.96092 -83.04522 6774 ft 279 kts 174°
2026-05-08 10:23 39.94228 -83.03604 7365 ft 295 kts 154°
2026-05-08 10:23 39.92488 -83.02152 8198 ft 299 kts 148°
2026-05-08 10:23 39.90769 -83.00573 8954 ft 306 kts 148°
2026-05-08 10:24 39.89015 -82.98954 9703 ft 312 kts 148°
2026-05-08 10:24 39.87206 -82.97313 10248 ft 326 kts 149°
2026-05-08 10:24 39.85263 -82.95591 10434 ft 350 kts 149°
2026-05-08 10:24 39.83187 -82.93777 10779 ft 367 kts 150°
2026-05-08 10:25 39.81041 -82.91919 11420 ft 373 kts 150°
2026-05-08 10:25 39.78868 -82.90049 12192 ft 376 kts 150°
2026-05-08 10:25 39.76674 -82.88169 12937 ft 380 kts 150°
2026-05-08 10:25 39.74453 -82.86274 13665 ft 384 kts 151°
2026-05-08 10:26 39.72208 -82.84363 14334 ft 388 kts 151°
2026-05-08 10:26 39.69936 -82.82432 14939 ft 393 kts 152°
2026-05-08 10:26 39.67633 -82.80477 15553 ft 398 kts 152°
2026-05-08 10:26 39.65301 -82.78498 16167 ft 403 kts 153°
2026-05-08 10:27 39.62942 -82.76498 16764 ft 407 kts 153°
2026-05-08 10:27 39.60555 -82.74476 17345 ft 412 kts 153°
2026-05-08 10:27 39.58139 -82.72430 17949 ft 417 kts 154°
2026-05-08 10:27 39.55699 -82.70364 18515 ft 422 kts 154°
2026-05-08 10:28 39.53233 -82.68278 19059 ft 424 kts 154°
2026-05-08 10:28 39.50754 -82.66183 19654 ft 426 kts 155°
2026-05-08 10:28 39.48257 -82.64099 20215 ft 426 kts 159°
2026-05-08 10:28 39.45604 -82.62551 20744 ft 412 kts 173°
2026-05-08 10:29 39.42882 -82.61794 21315 ft 400 kts 185°
2026-05-08 10:29 39.40159 -82.61736 21901 ft 385 kts 195°
2026-05-08 10:29 39.37496 -82.62023 22538 ft 384 kts 197°
2026-05-08 10:29 39.34831 -82.62330 23121 ft 385 kts 197°
2026-05-08 10:30 39.32155 -82.62636 23654 ft 387 kts 197°
2026-05-08 10:30 39.29468 -82.62935 24089 ft 389 kts 197°
2026-05-08 10:30 39.26764 -82.63224 24525 ft 391 kts 197°
2026-05-08 10:30 39.24049 -82.63508 24939 ft 393 kts 197°
2026-05-08 10:31 39.21316 -82.63789 25339 ft 395 kts 197°
2026-05-08 10:31 39.18572 -82.64068 25732 ft 397 kts 197°
2026-05-08 10:31 39.15814 -82.64346 26163 ft 398 kts 197°
2026-05-08 10:31 39.13049 -82.64624 26552 ft 399 kts 198°
2026-05-08 10:32 39.10270 -82.64905 26911 ft 402 kts 198°
2026-05-08 10:32 39.07474 -82.65187 27258 ft 404 kts 198°
2026-05-08 10:32 39.04670 -82.65470 27649 ft 405 kts 198°
2026-05-08 10:32 39.01854 -82.65753 28010 ft 407 kts 198°
2026-05-08 10:33 38.99027 -82.66037 28337 ft 409 kts 198°
2026-05-08 10:33 38.96183 -82.66323 28658 ft 411 kts 199°
2026-05-08 10:33 38.93328 -82.66609 29014 ft 412 kts 199°
2026-05-08 10:33 38.90466 -82.66895 29347 ft 413 kts 199°
2026-05-08 10:34 38.87591 -82.67184 29658 ft 415 kts 199°
2026-05-08 10:34 38.84704 -82.67474 29967 ft 417 kts 199°
2026-05-08 10:34 38.81812 -82.67761 30384 ft 415 kts 199°
2026-05-08 10:34 38.78944 -82.68053 30808 ft 411 kts 200°
2026-05-08 10:35 38.76101 -82.68357 31193 ft 409 kts 200°
2026-05-08 10:35 38.73269 -82.68667 31501 ft 408 kts 201°
2026-05-08 10:35 38.70444 -82.68979 31898 ft 406 kts 201°
2026-05-08 10:35 38.67677 -82.69281 32275 ft 403 kts 201°
2026-05-08 10:36 38.64887 -82.69587 32607 ft 402 kts 202°
2026-05-08 10:36 38.62100 -82.69893 32910 ft 401 kts 202°
2026-05-08 10:36 38.59327 -82.70195 33290 ft 399 kts 202°
2026-05-08 10:36 38.56568 -82.70493 33653 ft 397 kts 202°
2026-05-08 10:37 38.53820 -82.70792 33970 ft 396 kts 202°
2026-05-08 10:37 38.51077 -82.71090 34206 ft 396 kts 202°
2026-05-08 10:37 38.48349 -82.71387 34458 ft 395 kts 202°
2026-05-08 10:37 38.45600 -82.71686 34670 ft 395 kts 202°
2026-05-08 10:38 38.42861 -82.71985 34848 ft 396 kts 202°
2026-05-08 10:38 38.40116 -82.72283 35035 ft 396 kts 202°
2026-05-08 10:38 38.37375 -82.72579 35263 ft 395 kts 202°
2026-05-08 10:38 38.34635 -82.72874 35440 ft 396 kts 202°
2026-05-08 10:39 38.31886 -82.73171 35628 ft 396 kts 202°
2026-05-08 10:39 38.29141 -82.73467 35839 ft 396 kts 202°
2026-05-08 10:39 38.26402 -82.73758 36063 ft 394 kts 202°
2026-05-08 10:40 38.20904 -82.74354 36058 ft 398 kts 202°
2026-05-08 10:40 38.15403 -82.74940 36054 ft 395 kts 202°
2026-05-08 10:41 38.09936 -82.75521 36050 ft 393 kts 202°
2026-05-08 10:41 38.05415 -82.76003 36057 ft 391 kts 203°
2026-05-08 10:42 38.00008 -82.76579 36055 ft 389 kts 203°
2026-05-08 10:42 37.93748 -82.77249 36067 ft 388 kts 203°
2026-05-08 10:43 37.88363 -82.77826 36074 ft 389 kts 203°
2026-05-08 10:43 37.83847 -82.78307 36082 ft 389 kts 203°
2026-05-08 10:44 37.78442 -82.78884 36085 ft 391 kts 202°
2026-05-08 10:44 37.73013 -82.79460 36076 ft 392 kts 202°
2026-05-08 10:45 37.67570 -82.80036 36078 ft 393 kts 202°
2026-05-08 10:45 37.62150 -82.80608 36062 ft 394 kts 202°
2026-05-08 10:46 37.56655 -82.81185 36083 ft 393 kts 202°
2026-05-08 10:46 37.51187 -82.81764 36078 ft 395 kts 202°
2026-05-08 10:47 37.45748 -82.82335 36076 ft 395 kts 202°
2026-05-08 10:47 37.40260 -82.82912 36067 ft 396 kts 202°
2026-05-08 10:48 37.34763 -82.83489 36071 ft 397 kts 202°
2026-05-08 10:48 37.29252 -82.84066 36060 ft 398 kts 202°
2026-05-08 10:49 37.23743 -82.84640 36069 ft 397 kts 202°
2026-05-08 10:49 37.18241 -82.85215 36078 ft 397 kts 202°
2026-05-08 10:50 37.12738 -82.85789 36073 ft 397 kts 202°
2026-05-08 10:50 37.07246 -82.86359 36078 ft 395 kts 202°
2026-05-08 10:51 37.01776 -82.86929 36073 ft 394 kts 202°
2026-05-08 10:51 36.96314 -82.87497 36073 ft 394 kts 201°
2026-05-08 10:52 36.90858 -82.88080 36055 ft 389 kts 203°
2026-05-08 10:52 36.85526 -82.88895 36097 ft 384 kts 204°
2026-05-08 10:53 36.80228 -82.89778 36064 ft 384 kts 204°
2026-05-08 10:53 36.74923 -82.90641 36077 ft 385 kts 204°
2026-05-08 10:54 36.69608 -82.91484 36067 ft 385 kts 204°
2026-05-08 10:54 36.64296 -82.92321 36066 ft 385 kts 203°
2026-05-08 10:55 36.58979 -82.93156 36055 ft 385 kts 203°
2026-05-08 10:55 36.53659 -82.93991 36054 ft 386 kts 203°
2026-05-08 10:56 36.48334 -82.94825 36064 ft 386 kts 203°
2026-05-08 10:56 36.43000 -82.95659 36058 ft 386 kts 203°
2026-05-08 10:57 36.37704 -82.96486 36071 ft 386 kts 202°
2026-05-08 10:57 36.29694 -82.97735 36076 ft 387 kts 202°
2026-05-08 10:58 36.24356 -82.98578 36078 ft 387 kts 202°
2026-05-08 10:58 36.19022 -82.99443 36081 ft 387 kts 202°
2026-05-08 10:59 36.13684 -83.00308 36076 ft 387 kts 202°
2026-05-08 10:59 36.08346 -83.01168 36073 ft 387 kts 202°
2026-05-08 11:00 36.03013 -83.02026 36072 ft 386 kts 202°
2026-05-08 11:00 35.97684 -83.02882 36067 ft 386 kts 202°
2026-05-08 11:01 35.92363 -83.03736 36075 ft 386 kts 202°
2026-05-08 11:01 35.87089 -83.04579 36064 ft 383 kts 202°
2026-05-08 11:02 35.79173 -83.05849 36081 ft 382 kts 202°
2026-05-08 11:02 35.76649 -83.06571 36076 ft 364 kts 213°
2026-05-08 11:03 35.74352 -83.07797 36052 ft 360 kts 217°
2026-05-08 11:03 35.69826 -83.10501 36081 ft 364 kts 217°
2026-05-08 11:04 35.65233 -83.13233 36104 ft 369 kts 217°
2026-05-08 11:04 35.60556 -83.15966 36083 ft 374 kts 217°
2026-05-08 11:05 35.55881 -83.18669 36104 ft 369 kts 216°
2026-05-08 11:05 35.51273 -83.21334 36094 ft 364 kts 217°
2026-05-08 11:05 35.48983 -83.22661 35913 ft 367 kts 216°
2026-05-08 11:06 35.46665 -83.24004 35438 ft 368 kts 216°
2026-05-08 11:06 35.44346 -83.25344 34864 ft 368 kts 216°
2026-05-08 11:06 35.42020 -83.26679 34189 ft 372 kts 216°
2026-05-08 11:06 35.39668 -83.28013 33501 ft 373 kts 215°
2026-05-08 11:07 35.37303 -83.29349 32779 ft 375 kts 215°
2026-05-08 11:07 35.34927 -83.30688 32117 ft 376 kts 215°
2026-05-08 11:07 35.32545 -83.32032 31458 ft 378 kts 215°
2026-05-08 11:07 35.30156 -83.33381 30860 ft 378 kts 215°
2026-05-08 11:08 35.27778 -83.34719 30350 ft 376 kts 215°
2026-05-08 11:08 35.25410 -83.36051 29839 ft 373 kts 215°
2026-05-08 11:08 35.23057 -83.37375 29290 ft 371 kts 215°
2026-05-08 11:08 35.20726 -83.38688 28766 ft 368 kts 214°
2026-05-08 11:09 35.18415 -83.39989 28277 ft 364 kts 214°
2026-05-08 11:09 35.16147 -83.41261 28172 ft 351 kts 214°
2026-05-08 11:09 35.13934 -83.42504 27848 ft 353 kts 215°
2026-05-08 11:09 35.11655 -83.43799 27609 ft 369 kts 214°
2026-05-08 11:10 35.09288 -83.45140 27380 ft 381 kts 214°
2026-05-08 11:10 35.06895 -83.46486 27129 ft 384 kts 213°
2026-05-08 11:10 35.04487 -83.47850 26859 ft 380 kts 214°
2026-05-08 11:10 35.02110 -83.49212 26616 ft 375 kts 214°
2026-05-08 11:11 34.99758 -83.50568 26377 ft 374 kts 214°
2026-05-08 11:11 34.97407 -83.51927 26119 ft 374 kts 214°
2026-05-08 11:11 34.95060 -83.53281 25896 ft 373 kts 214°
2026-05-08 11:11 34.92712 -83.54636 25656 ft 373 kts 214°
2026-05-08 11:12 34.90367 -83.55986 25415 ft 373 kts 214°
2026-05-08 11:12 34.88019 -83.57336 25180 ft 373 kts 214°
2026-05-08 11:12 34.85673 -83.58683 24949 ft 373 kts 214°
2026-05-08 11:12 34.83322 -83.60032 24724 ft 374 kts 213°
2026-05-08 11:13 34.80969 -83.61382 24495 ft 374 kts 213°
2026-05-08 11:13 34.78614 -83.62731 24279 ft 374 kts 213°
2026-05-08 11:13 34.76258 -83.64080 24056 ft 375 kts 214°
2026-05-08 11:13 34.73899 -83.65429 23828 ft 374 kts 214°
2026-05-08 11:14 34.71556 -83.66768 23608 ft 369 kts 214°
2026-05-08 11:14 34.69239 -83.68091 23335 ft 367 kts 214°
2026-05-08 11:14 34.66931 -83.69410 23002 ft 365 kts 214°
2026-05-08 11:14 34.64644 -83.70714 22561 ft 361 kts 214°
2026-05-08 11:15 34.62388 -83.72000 22046 ft 357 kts 214°
2026-05-08 11:15 34.60136 -83.73288 21504 ft 356 kts 214°
2026-05-08 11:15 34.57931 -83.74548 21041 ft 354 kts 214°
2026-05-08 11:15 34.55717 -83.75812 20587 ft 351 kts 214°
2026-05-08 11:16 34.53518 -83.77067 20142 ft 348 kts 214°
2026-05-08 11:16 34.51336 -83.78312 19723 ft 345 kts 214°
2026-05-08 11:16 34.49139 -83.79566 19272 ft 344 kts 214°
2026-05-08 11:16 34.47009 -83.80781 18863 ft 342 kts 214°
2026-05-08 11:17 34.44864 -83.82004 18449 ft 340 kts 214°
2026-05-08 11:17 34.42728 -83.83221 17954 ft 339 kts 214°
2026-05-08 11:17 34.40603 -83.84432 17502 ft 336 kts 214°
2026-05-08 11:17 34.38491 -83.85633 17068 ft 334 kts 214°
2026-05-08 11:18 34.36395 -83.86825 16639 ft 332 kts 214°
2026-05-08 11:18 34.34312 -83.88008 16223 ft 329 kts 213°
2026-05-08 11:18 34.32249 -83.89190 15809 ft 326 kts 214°
2026-05-08 11:18 34.30239 -83.90442 15393 ft 324 kts 216°
2026-05-08 11:19 34.28253 -83.91720 14979 ft 322 kts 216°
2026-05-08 11:19 34.26279 -83.92993 14576 ft 321 kts 216°
2026-05-08 11:19 34.24304 -83.94256 14168 ft 321 kts 215°
2026-05-08 11:19 34.22328 -83.95510 13713 ft 321 kts 215°
2026-05-08 11:20 34.20353 -83.96760 13271 ft 320 kts 215°
2026-05-08 11:20 34.18383 -83.98004 12866 ft 319 kts 214°
2026-05-08 11:20 34.16419 -83.99243 12551 ft 320 kts 214°
2026-05-08 11:20 34.14419 -84.00509 12246 ft 327 kts 214°
2026-05-08 11:21 34.12394 -84.01789 11934 ft 329 kts 214°
2026-05-08 11:21 34.10368 -84.03065 11625 ft 327 kts 214°
2026-05-08 11:21 34.08364 -84.04324 11322 ft 321 kts 214°
2026-05-08 11:21 34.06401 -84.05559 11033 ft 315 kts 214°
2026-05-08 11:22 34.04471 -84.06773 10745 ft 310 kts 214°
2026-05-08 11:22 34.02575 -84.07966 10472 ft 305 kts 214°
2026-05-08 11:22 34.00646 -84.09022 10182 ft 308 kts 202°
2026-05-08 11:22 33.98497 -84.09298 9923 ft 314 kts 180°
2026-05-08 11:23 33.96396 -84.08879 9944 ft 297 kts 176°
2026-05-08 11:23 33.94402 -84.08430 9524 ft 293 kts 176°
2026-05-08 11:23 33.92398 -84.07995 9141 ft 290 kts 176°
2026-05-08 11:23 33.90431 -84.07635 8858 ft 280 kts 181°
2026-05-08 11:24 33.88526 -84.07430 8633 ft 271 kts 183°
2026-05-08 11:24 33.86660 -84.07297 8422 ft 267 kts 187°
2026-05-08 11:24 33.84829 -84.07564 8010 ft 265 kts 198°
2026-05-08 11:24 33.83041 -84.08075 7694 ft 263 kts 200°
2026-05-08 11:25 33.81282 -84.08604 7414 ft 259 kts 200°
2026-05-08 11:25 33.79536 -84.09113 7147 ft 258 kts 199°
2026-05-08 11:25 33.77790 -84.09607 6889 ft 257 kts 198°
2026-05-08 11:25 33.76046 -84.10087 6624 ft 257 kts 198°
2026-05-08 11:26 33.74305 -84.10557 6353 ft 256 kts 198°
2026-05-08 11:26 33.72566 -84.11020 6072 ft 256 kts 197°
2026-05-08 11:26 33.70833 -84.11478 5802 ft 254 kts 197°
2026-05-08 11:26 33.69127 -84.11926 5597 ft 245 kts 197°
2026-05-08 11:27 33.67528 -84.12348 5491 ft 226 kts 200°
2026-05-08 11:27 33.66232 -84.13188 5352 ft 202 kts 227°
2026-05-08 11:27 33.65391 -84.14500 4930 ft 199 kts 245°
2026-05-08 11:27 33.65074 -84.16063 4642 ft 192 kts 266°
2026-05-08 11:28 33.65019 -84.17649 4412 ft 190 kts 267°
2026-05-08 11:28 33.64992 -84.19237 4168 ft 191 kts 268°
2026-05-08 11:28 33.64982 -84.20838 3948 ft 192 kts 269°
2026-05-08 11:28 33.64979 -84.21905 3810 ft 194 kts 269°
2026-05-08 11:29 33.64974 -84.24071 3536 ft 191 kts 269°
2026-05-08 11:29 33.64973 -84.25117 3404 ft 187 kts 269°
2026-05-08 11:29 33.64971 -84.26649 3193 ft 181 kts 269°
2026-05-08 11:29 33.64968 -84.28139 3024 ft 177 kts 269°
2026-05-08 11:30 33.64965 -84.29632 2917 ft 181 kts 269°
2026-05-08 11:30 33.64963 -84.31135 2708 ft 178 kts 269°
2026-05-08 11:30 33.64961 -84.32574 2486 ft 166 kts 269°
2026-05-08 11:30 33.64959 -84.33929 2288 ft 162 kts 269°
2026-05-08 11:31 33.64958 -84.35281 2054 ft 161 kts 269°
2026-05-08 11:31 33.64956 -84.36621 1765 ft 161 kts 270°
2026-05-08 11:31 33.64943 -84.38006 1492 ft 167 kts 272°
2026-05-08 11:31 33.64956 -84.39383 1274 ft 162 kts 272°
2026-05-08 11:32 33.64950 -84.40702 1073 ft 160 kts 271°
2026-05-08 11:32 33.64955 -84.42005 1006 ft 141 kts 270°
2026-05-08 11:32 33.64955 -84.42818 1005 ft 58 kts 270°
2026-05-08 11:32 33.64922 -84.43196 1006 ft 36 kts 247°
2026-05-08 11:33 33.64829 -84.43304 1006 ft 17 kts 164°
2026-05-08 11:33 33.64784 -84.43182 1006 ft 17 kts 109°
2026-05-08 11:33 33.64685 -84.43140 1006 ft 16 kts 197°
2026-05-08 11:33 33.64612 -84.43236 1007 ft 15 kts 226°
2026-05-08 11:34 33.64541 -84.43191 1006 ft 15 kts 104°
2026-05-08 11:34 33.64490 -84.43099 1006 ft 14 kts 169°
2026-05-08 11:34 33.64418 -84.43109 1006 ft 10 kts 205°
2026-05-08 11:34 33.64353 -84.43130 1005 ft 10 kts 178°
2026-05-08 11:35 33.64287 -84.43130 1005 ft 9 kts 180°
2026-05-08 11:35 33.64222 -84.43130 1005 ft 9 kts 180°
2026-05-08 11:35 33.64158 -84.43130 1005 ft 9 kts 180°
2026-05-08 11:35 33.64097 -84.43130 1005 ft 9 kts 181°
2026-05-08 11:36 33.64037 -84.43131 1005 ft 8 kts 180°
2026-05-08 11:36 33.63981 -84.43137 1005 ft 8 kts 215°
2026-05-08 11:36 33.63979 -84.43169 1005 ft 3 kts 277°
2026-05-08 11:36 33.63981 -84.43194 1005 ft 3 kts 276°
2026-05-08 11:37 33.63982 -84.43205 1005 ft 0 kts 276°